This is the latest recevied weather packets stored in our database for station/object AC4AG. If no packets are shown the sender has not sent any weather packets the latest 1 day(s).
| Time | Temp. | Humidity | Pressure | Rain* | Wind** | Luminosity | Snow |
|---|---|---|---|---|---|---|---|
| 1778016422 | 20.56° C | 60% | 1008.9 hPa | 0 mm | 1.34 m/s, 135° | 192 W/m² | - |
| 1778016120 | 21.11° C | 60% | 1008.9 hPa | 0 mm | 1.79 m/s, 113° | 248 W/m² | - |
| 1778015816 | 20.56° C | 61% | 1008.9 hPa | 0 mm | 1.34 m/s, 164° | 291 W/m² | - |
| 1778015514 | 20.56° C | 61% | 1008.8 hPa | 0 mm | 1.34 m/s, 163° | 341 W/m² | - |
| 1778015210 | 20° C | 61% | 1009.1 hPa | 0 mm | 1.34 m/s, 153° | 206 W/m² | - |
| 1778014907 | 20° C | 63% | 1009 hPa | 0 mm | 0.89 m/s, 183° | 204 W/m² | - |
| 1778014604 | 20° C | 61% | 1009.1 hPa | 0 mm | 1.34 m/s, 171° | 161 W/m² | - |
| 1778014302 | 20° C | 61% | 1009.3 hPa | 0 mm | 1.34 m/s, 199° | 108 W/m² | - |
| 1778014003 | 20° C | 62% | 1009.1 hPa | 0 mm | 1.34 m/s, 181° | 91 W/m² | - |
| 1778013697 | 20° C | 60% | 1009.2 hPa | 0 mm | 0.89 m/s, 143° | 173 W/m² | - |
| 1778013393 | 20° C | 61% | 1009.4 hPa | 0 mm | 0.89 m/s, 134° | 173 W/m² | - |
| 1778013091 | 20° C | 60% | 1009.5 hPa | 0 mm | 1.34 m/s, 159° | 156 W/m² | - |
| 1778012786 | 20° C | 61% | 1009.7 hPa | 0 mm | 1.34 m/s, 175° | 146 W/m² | - |
| 1778012482 | 20° C | 61% | 1009.5 hPa | 0 mm | 1.34 m/s, 165° | 112 W/m² | - |
| 1778012179 | 20° C | 60% | 1009.5 hPa | 0 mm | 1.34 m/s, 210° | 88 W/m² | - |
| 1778011877 | 20° C | 60% | 1009.9 hPa | 0 mm | 1.34 m/s, 180° | 88 W/m² | - |
| 1778011575 | 20° C | 58% | 1009.7 hPa | 0 mm | 4.02 m/s, 203° | 121 W/m² | - |
| 1778011271 | 20° C | 59% | 1009.8 hPa | 0 mm | 2.24 m/s, 201° | 126 W/m² | - |
| 1778010968 | 20° C | 59% | 1009.6 hPa | 0 mm | 2.68 m/s, 201° | 148 W/m² | - |
| 1778010665 | 20° C | 59% | 1009.9 hPa | 0 mm | 2.24 m/s, 198° | 126 W/m² | - |
| 1778010362 | 20° C | 59% | 1010.3 hPa | 0 mm | 3.58 m/s, 228° | 90 W/m² | - |
| 1778010058 | 20.56° C | 59% | 1010.3 hPa | 0 mm | 2.24 m/s, 184° | 114 W/m² | - |
| 1778009755 | 20.56° C | 60% | 1010.4 hPa | 0 mm | 1.79 m/s, 248° | 216 W/m² | - |
| 1778009452 | 20.56° C | 60% | 1010.5 hPa | 0 mm | 1.34 m/s, 160° | 223 W/m² | - |
| 1778009151 | 20.56° C | 59% | 1010.5 hPa | 0 mm | 4.02 m/s, 192° | 234 W/m² | - |
* Rain latest hour (hover to see other rain measurements)
** Current wind speed in m/s (hover to see current wind gust speed)